Location: Unspecified
(48.8582°N, 2.2947°E)
Time: 20:06:45
(UTC+02:00)

ISS - Pass Details

Date: 31 March 2019
Orbit: 408 x 410 km, 51.6° (Epoch: 25 April)

Event Time Altitude Azimuth Distance (km) Brightness Sun altitude
Rises 22:34:42 0° 290° (WNW) 2,339 1.4 -21.4°
Reaches altitude 10° 22:36:47 10° 290° (WNW) 1,476 0.1 -21.7°
Enters shadow 22:39:28 55° 291° (WNW) 496 -3.2 -22.0°
